Tracking 18980 objects as of 21-Feb-2018
HD Live streaming from Space Station
objects crossing your sky now

FENGYUN 1C DEB

Track FENGYUN 1C DEB now!
10-day predictions


NORAD ID: 31424
Int'l Code: 1999-025BTL
Perigee: 810.5 km
Apogee: 948.0 km
Inclination: 98.5 °
Period: 102.4 minutes
Semi major axis: 7250 km
RCS: 0.0107 m2 (small)
Launch date: May 10, 1999
Source: People's Republic of China (PRC)
Launch site: Taiyaun Space Center, China (TSC)

Note: This is SATELLITE DEBRIS
aabbcc
Your satellite tracking list
Your tracking list is empty




NASA's NSSDC Master Catalog

Two Line Element Set (TLE):
1 31424U 99025BTL 18050.19634927 -.00000120 +00000-0 -46255-4 0  9995
2 31424 098.4542 211.6238 0094792 267.6084 091.4230 14.06284297557228
Source of the keplerian elements: AFSPC